Location: Newark
(45.8378°N, 5.5389°E)
Time: 01:30:10
(UTC+00:00)

YUBILEINY - Pass Details

Date: 21 December 2019
Orbit: 1478 x 1509 km, 82.5° (Epoch: 23 January)

Event Time Altitude Azimuth Distance (km) Brightness Sun altitude
Rises 04:20:24 0° 357° (N) 4,611 ? -29.4°
Reaches altitude 10° 04:25:31 10° 22° (NNE) 3,628 ? -28.5°
Maximum altitude 04:29:31 14° 51° (NE) 3,344 ? -27.9°
Drops below altitude 10° 04:33:31 10° 79° (ENE) 3,628 ? -27.2°
Sets 04:38:34 0° 104° (ESE) 4,608 ? -26.3°
